HB9TUO-2 Weather Reports


time (UTC)temp
C
wind
direction
speed
KPH
gust
KPH
rain 1hr
cm
rain 24hr
cm
rain mn
cm
humidity
%
barometer
mb
20260902144004 27 220 3.2 8.0 0.00 0.00 0.00 38 1016.7
20260902143714 27 201 1.6 9.7 0.00 0.00 0.00 41 1016.5
20260902143003 26 201 6.4 9.7 0.00 0.00 0.00 40 1016.3
20260902142715 26 218 3.2 11.3 0.00 0.00 0.00 41 1016.5
20260902142003 27 217 4.8 11.3 0.00 0.00 0.00 41 1016.4
20260902141503 26 220 3.2 6.4 0.00 0.00 0.00 41 1016.3
20260902141003 26 326 4.8 6.4 0.00 0.00 0.00 42 1016.6
20260902140503 26 270 3.2 12.9 0.00 0.00 0.00 41 1016.4
20260902140215 26 182 3.2 12.9 0.00 0.00 0.00 41 1016.4
20260902135503 26 186 6.4 8.0 0.00 0.00 0.00 43 1016.6
20260902135003 25 191 3.2 6.4 0.00 0.00 0.00 44 1016.6
20260902134503 26 204 3.2 8.0 0.00 0.00 0.00 45 1016.7
20260902134217 26 215 3.2 8.0 0.00 0.00 0.00 45 1016.6
20260902133504 26 188 3.2 9.7 0.00 0.00 0.00 46 1016.4
20260902133003 25 196 3.2 9.7 0.00 0.00 0.00 49 1016.5
20260902132503 25 210 6.4 8.0 0.00 0.00 0.00 47 1016.8
20260902132003 25 164 3.2 9.7 0.00 0.00 0.00 46 1016.8
20260902131717 26 164 6.4 9.7 0.00 0.00 0.00 46 1016.9
20260902131004 26 210 3.2 8.0 0.00 0.00 0.00 44 1016.8
20260902130503 25 211 0.0 9.7 0.00 0.00 0.00 50 1016.7
20260902130004 25 206 3.2 9.7 0.00 0.00 0.00 49 1017.0
20260902125504 25 172 6.4 9.7 0.00 0.00 0.00 50 1017.1
20260902125003 25 172 3.2 6.4 0.00 0.00 0.00 50 1016.8
20260902124504 25 196 4.8 11.3 0.00 0.00 0.00 48 1017.0
20260902124003 25 190 3.2 11.3 0.00 0.00 0.00 51 1016.9
20260902123503 25 167 6.4 11.3 0.00 0.00 0.00 50 1017.3
20260902123003 25 169 6.4 9.7 0.00 0.00 0.00 50 1017.4
20260902122503 24 208 4.8 6.4 0.00 0.00 0.00 51 1017.2
20260902122003 24 156 3.2 6.4 0.00 0.00 0.00 52 1017.2
20260902121503 23 169 4.8 6.4 0.00 0.00 0.00 53 1017.4
20260902121215 23 197 3.2 6.4 0.00 0.00 0.00 55 1017.3
20260902120504 24 216 3.2 8.0 0.00 0.00 0.00 55 1017.1
20260902120216 24 209 3.2 8.0 0.00 0.00 0.00 55 1017.3
20260902115714 23 196 6.4 8.0 0.00 0.00 0.00 54 1017.3
20260902115004 23 184 6.4 11.3 0.00 0.00 0.00 55 1017.6
20260902114504 23 169 4.8 11.3 0.00 0.00 0.00 56 1017.5
20260902114004 23 163 6.4 11.3 0.00 0.00 0.00 59 1017.4
20260902113504 23 168 6.4 11.3 0.00 0.00 0.00 58 1017.7
20260902113004 23 157 9.7 11.3 0.00 0.00 0.00 58 1017.6
20260902112504 23 166 4.8 8.0 0.00 0.00 0.00 59 1017.5
20260902112004 23 182 6.4 9.7 0.00 0.00 0.00 59 1017.6
20260902111504 23 176 4.8 9.7 0.00 0.00 0.00 59 1017.7
20260902111004 23 198 3.2 6.4 0.00 0.00 0.00 61 1017.8
20260902110504 22 235 3.2 6.4 0.00 0.00 0.00 61 1017.9
20260902110007 22 201 3.2 6.4 0.00 0.00 0.00 64 1018.0
20260902105715 21 195 6.4 6.4 0.00 0.00 0.00 63 1018.0
20260902105003 21 183 3.2 8.0 0.00 0.00 0.00 65 1018.2
20260902104504 21 170 3.2 8.0 0.00 0.00 0.00 65 1018.0
20260902104214 21 167 3.2 8.0 0.00 0.00 0.00 64 1017.9
20260902103504 22 180 3.2 6.4 0.00 0.00 0.00 64 1018.1
20260902103004 21 181 3.2 6.4 0.00 0.00 0.00 66 1017.9
20260902102504 21 171 3.2 6.4 0.00 0.00 0.00 66 1018.0
20260902102003 21 184 1.6 6.4 0.00 0.00 0.00 66 1018.3
20260902101504 21 201 3.2 3.2 0.00 0.00 0.00 68 1018.2
20260902101004 20 192 1.6 3.2 0.00 0.00 0.00 64 1018.1
20260902100504 20 182 3.2 4.8 0.00 0.00 0.00 66 1018.2
20260902100004 20 175 3.2 4.8 0.00 0.00 0.00 66 1018.0
20260902095504 20 162 3.2 4.8 0.00 0.00 0.00 65 1018.1
20260902095003 21 162 3.2 4.8 0.00 0.00 0.00 65 1018.2
20260902094504 20 152 0.0 4.8 0.00 0.00 0.00 68 1018.2
20260902094004 20 156 1.6 4.8 0.00 0.00 0.00 68 1018.1
20260902093717 20 171 3.2 4.8 0.00 0.00 0.00 68 1018.2
20260902093003 20 188 1.6 4.8 0.00 0.00 0.00 69 1018.3
20260902092713 20 172 3.2 4.8 0.00 0.00 0.00 68 1018.2
20260902092003 20 143 3.2 4.8 0.00 0.00 0.00 69 1018.2
20260902091504 20 147 1.6 3.2 0.00 0.00 0.00 69 1018.1
20260902091217 20 149 1.6 3.2 0.00 0.00 0.00 70 1018.4
20260902090715 19 146 1.6 3.2 0.00 0.00 0.00 70 1018.3
20260902090213 19 154 0.0 3.2 0.00 0.00 0.00 70 1018.2
20260902085504 19 171 1.6 3.2 0.00 0.00 0.00 70 1018.0
20260902085003 19 172 1.6 3.2 0.00 0.00 0.00 71 1018.1
20260902084503 19 180 1.6 3.2 0.00 0.00 0.00 71 1018.1
20260902084003 19 176 3.2 3.2 0.00 0.00 0.00 71 1018.3
20260902083504 19 161 1.6 3.2 0.00 0.00 0.00 70 1018.0
20260902083003 19 164 0.0 3.2 0.00 0.00 0.00 71 1018.1
20260902082504 19 176 0.0 3.2 0.00 0.00 0.00 71 1018.0
20260902082003 18 324 0.0 3.2 0.00 0.00 0.00 71 1017.7
20260902081715 18 333 0.0 3.2 0.00 0.00 0.00 71 1017.8
20260902081003 18 183 0.0 1.6 0.00 0.00 0.00 71 1018.2
20260902080503 18 165 0.0 1.6 0.00 0.00 0.00 72 1017.9
20260902080214 18 152 0.0 1.6 0.00 0.00 0.00 72 1017.8
20260902075504 18 145 0.0 1.6 0.00 0.00 0.00 71 1017.9
20260902075004 18 147 0.0 1.6 0.00 0.00 0.00 71 1017.9
20260902074718 18 126 0.0 1.6 0.00 0.00 0.00 72 1017.8
20260902074004 18 360 0.0 3.2 0.00 0.00 0.00 72 1017.7
20260902073504 17 1 1.6 3.2 0.00 0.00 0.00 71 1017.5
20260902073217 17 1 0.0 3.2 0.00 0.00 0.00 72 1017.7
20260902072715 17 45 0.0 1.6 0.00 0.00 0.00 72 1017.8
20260902072004 17 128 0.0 3.2 0.00 0.00 0.00 73 1017.4
20260902071504 17 360 0.0 3.2 0.00 0.00 0.00 73 1017.5
20260902071004 17 360 0.0 3.2 0.00 0.00 0.00 73 1017.7
20260902070504 17 360 1.6 3.2 0.00 0.00 0.00 74 1017.6
20260902070006 17 0 0.0 0.0 0.00 0.00 0.00 73 1017.6
20260902065718 17 0 0.0 0.0 0.00 0.00 0.00 77 1017.6
20260902065003 17 90 0.0 1.6 0.00 0.00 0.00 76 1017.6
20260902064713 17 90 0.0 1.6 0.00 0.00 0.00 76 1017.6
20260902064004 17 90 0.0 1.6 0.00 0.00 0.00 76 1017.6
20260902063504 17 0 0.0 0.0 0.00 0.00 0.00 76 1017.5
20260902063004 17 90 0.0 1.6 0.00 0.00 0.00 77 1017.4
20260902062715 17 90 0.0 1.6 0.00 0.00 0.00 77 1017.6
20260902062004 16 48 0.0 3.2 0.00 0.00 0.00 78 1017.4
20260902061004 16 360 1.6 3.2 0.00 0.00 0.00 79 1017.6
20260902060503 16 5 0.0 3.2 0.00 0.00 0.00 80 1017.4
20260902060004 16 15 0.0 3.2 0.00 0.00 0.00 80 1017.5
20260902055713 16 5 0.0 3.2 0.00 0.00 0.00 80 1017.4
20260902055003 16 356 0.0 3.2 0.00 0.00 0.00 80 1017.4
20260902054504 16 5 3.2 4.8 0.00 0.00 0.00 80 1017.5
20260902054003 16 12 1.6 4.8 0.00 0.00 0.00 80 1017.5
20260902053504 15 12 1.6 3.2 0.00 0.00 0.00 81 1017.4
20260902053213 15 7 1.6 3.2 0.00 0.00 0.00 81 1017.2
20260902052503 15 16 1.6 3.2 0.00 0.00 0.00 81 1017.4
20260902052004 15 22 0.0 3.2 0.00 0.00 0.00 80 1017.1
20260902051504 16 46 0.0 1.6 0.00 0.00 0.00 81 1017.2
20260902051003 16 49 0.0 3.2 0.00 0.00 0.00 81 1017.4
20260902050713 16 38 0.0 3.2 0.00 0.00 0.00 81 1017.3
20260902050006 15 27 0.0 1.6 0.00 0.00 0.00 81 1017.1
20260902045503 15 47 0.0 3.2 0.00 0.00 0.00 81 1017.4
20260902045003 16 45 0.0 3.2 0.00 0.00 0.00 81 1017.2
20260902044503 16 55 1.6 3.2 0.00 0.00 0.00 81 1017.4
20260902044003 16 64 0.0 3.2 0.00 0.00 0.00 81 1017.1
20260902043503 16 38 0.0 3.2 0.00 0.00 0.00 81 1017.3
20260902043003 16 8 1.6 3.2 0.00 0.00 0.00 81 1017.1
20260902042504 16 354 3.2 3.2 0.00 0.00 0.00 80 1017.1
20260902042214 16 350 3.2 3.2 0.00 0.00 0.00 80 1017.1
20260902041717 16 14 1.6 3.2 0.00 0.00 0.00 80 1016.9
20260902041004 16 43 1.6 3.2 0.00 0.00 0.00 80 1017.1
20260902040504 16 45 0.0 1.6 0.00 0.00 0.00 80 1016.9
20260902040004 16 14 0.0 3.2 0.00 0.00 0.00 80 1016.9
20260902035504 16 360 0.0 4.8 0.00 0.00 0.00 80 1017.0
20260902035004 16 360 1.6 4.8 0.00 0.00 0.00 80 1017.0
20260902034504 16 2 3.2 3.2 0.00 0.00 0.00 80 1017.1
20260902034213 16 2 1.6 3.2 0.00 0.00 0.00 80 1017.1
20260902033504 16 360 3.2 3.2 0.00 0.00 0.00 80 1017.0
20260902033004 16 360 1.6 3.2 0.00 0.00 0.00 80 1017.0
20260902032503 16 1 1.6 3.2 0.00 0.00 0.00 80 1017.1
20260902032215 16 12 1.6 3.2 0.00 0.00 0.00 80 1017.4
20260902031503 16 15 0.0 3.2 0.00 0.00 0.00 80 1017.1
20260902031003 16 11 0.0 3.2 0.00 0.00 0.00 80 1017.2
20260902030503 16 11 1.6 3.2 0.00 0.00 0.00 80 1017.1
20260902030004 16 18 3.2 3.2 0.00 0.00 0.00 80 1017.3
20260902025503 16 38 0.0 3.2 0.00 0.00 0.00 80 1017.1
20260902025004 16 5 1.6 3.2 0.00 0.00 0.00 81 1017.1
20260902024504 16 343 1.6 3.2 0.00 0.00 0.00 81 1017.3
20260902024004 16 3 0.0 4.8 0.00 0.00 0.00 81 1017.2
20260902023503 16 357 1.6 4.8 0.00 0.00 0.00 81 1017.1
20260902023003 16 349 3.2 6.4 0.00 0.00 0.00 81 1017.1
20260902022503 16 355 3.2 6.4 0.00 0.00 0.00 81 1017.0
20260902022003 16 2 3.2 3.2 0.00 0.00 0.00 80 1017.0
20260902021504 16 4 1.6 3.2 0.00 0.00 0.00 80 1017.0
20260902021003 16 26 1.6 3.2 0.00 0.00 0.00 81 1017.1
20260902020503 16 45 0.0 1.6 0.00 0.00 0.00 81 1016.8
20260902020003 16 25 0.0 1.6 0.00 0.00 0.00 81 1017.1
20260902015503 16 1 0.0 3.2 0.00 0.00 0.00 80 1017.0
20260902015003 16 18 0.0 3.2 0.00 0.00 0.00 80 1017.1
20260902014503 16 43 1.6 3.2 0.00 0.00 0.00 80 1017.2
20260902014003 16 64 0.0 1.6 0.00 0.00 0.00 79 1017.0
20260902013503 16 57 0.0 1.6 0.00 0.00 0.00 78 1017.1
20260902013003 16 51 0.0 3.2 0.00 0.00 0.00 78 1016.9
20260902012503 17 53 1.6 3.2 0.00 0.00 0.00 79 1017.1
20260902012216 17 52 0.0 3.2 0.00 0.00 0.00 79 1017.1
20260902011504 16 315 0.0 3.2 0.00 0.00 0.00 79 1017.1
20260902011004 17 328 0.0 3.2 0.00 0.00 0.00 80 1017.1
20260902010504 16 358 1.6 4.8 0.00 0.00 0.00 80 1017.1
20260902010004 16 4 1.6 4.8 0.00 0.00 0.00 80 1017.0
20260902005504 16 26 3.2 4.8 0.00 0.00 0.00 80 1017.0
20260902005004 16 45 0.0 1.6 0.00 0.00 0.00 80 1017.1
20260902004504 16 48 0.0 1.6 0.00 0.00 0.00 80 1017.1
20260902004004 16 51 0.0 1.6 0.00 0.00 0.00 80 1017.2
20260902003504 16 86 0.0 1.6 0.00 0.00 0.00 80 1017.3
20260902003004 17 90 0.0 1.6 0.00 0.00 0.00 80 1017.3
20260902002504 17 341 0.0 3.2 0.00 0.00 0.00 79 1017.3
20260902002217 17 346 0.0 3.2 0.00 0.00 0.00 80 1017.2
20260902001504 17 2 1.6 3.2 0.00 0.00 0.00 79 1017.2
20260902001004 17 5 1.6 3.2 0.00 0.00 0.00 79 1017.4
20260902000504 17 36 0.0 3.2 0.00 0.00 0.00 79 1017.4
20260902000004 17 19 0.0 3.2 0.00 0.00 0.00 79 1017.4
20260901235503 17 358 3.2 3.2 0.00 0.00 0.00 78 1017.4
20260901235004 17 6 1.6 3.2 0.00 0.00 0.00 78 1017.3
20260901234504 17 4 1.6 3.2 0.00 0.00 0.00 78 1017.1
20260901234004 17 4 1.6 3.2 0.00 0.00 0.00 77 1017.4
20260901233504 17 2 1.6 4.8 0.00 0.00 0.00 77 1017.3
20260901233004 17 3 1.6 4.8 0.00 0.00 0.00 77 1017.4
20260901232503 17 7 1.6 3.2 0.00 0.00 0.00 78 1017.3
20260901232004 17 7 1.6 3.2 0.00 0.00 0.00 78 1017.1
20260901231503 17 24 1.6 3.2 0.00 0.00 0.00 79 1017.3
20260901231003 16 35 0.0 3.2 0.00 0.00 0.00 80 1017.3
20260901230504 16 10 0.0 3.2 0.00 0.00 0.00 80 1017.3
20260901230004 16 360 1.6 3.2 0.00 0.00 0.00 80 1017.3
20260901225503 16 20 1.6 3.2 0.00 0.00 0.00 80 1017.6
20260901225004 16 28 0.0 3.2 0.00 0.00 0.00 80 1017.5
20260901224504 16 7 1.6 3.2 0.00 0.00 0.00 80 1017.4
20260901224003 16 359 1.6 3.2 0.00 0.00 0.00 80 1017.4
20260901223503 16 5 1.6 3.2 0.00 0.00 0.00 80 1017.5
20260901223004 16 3 1.6 3.2 0.00 0.00 0.00 80 1017.3
20260901222503 16 360 1.6 3.2 0.00 0.00 0.00 80 1017.4
20260901222003 16 360 1.6 3.2 0.00 0.00 0.00 80 1017.3
20260901221504 16 360 1.6 3.2 0.00 0.00 0.00 80 1017.4
20260901221003 16 360 3.2 3.2 0.00 0.00 0.00 80 1017.4
20260901220503 16 356 1.6 3.2 0.00 0.00 0.00 80 1017.5
20260901220003 16 351 1.6 3.2 0.00 0.00 0.00 80 1017.5
20260901215503 16 356 3.2 3.2 0.00 0.00 0.00 80 1017.3
20260901215003 16 357 3.2 4.8 0.00 0.00 0.00 80 1017.5
20260901214503 16 357 1.6 4.8 0.00 0.00 0.00 80 1017.2
20260901214217 16 348 3.2 4.8 0.00 0.00 0.00 80 1017.4
20260901213503 17 332 1.6 3.2 0.00 0.00 0.00 79 1017.5
20260901213003 17 28 0.0 1.6 0.00 0.00 0.00 80 1017.4
20260901212503 17 2 0.0 3.2 0.00 0.00 0.00 80 1017.4
20260901212003 16 351 0.0 3.2 0.00 0.00 0.00 80 1017.5
20260901211503 16 360 1.6 3.2 0.00 0.00 0.00 80 1017.7
20260901211004 16 360 3.2 4.8 0.00 0.00 0.00 80 1017.6
20260901210504 16 356 0.0 6.4 0.00 0.00 0.00 80 1017.4
20260901210216 16 356 1.6 6.4 0.00 0.00 0.00 80 1017.5
20260901205504 17 9 1.6 3.2 0.00 0.00 0.00 80 1017.4
20260901205004 17 359 1.6 3.2 0.00 0.00 0.00 80 1017.4
20260901204504 17 352 3.2 3.2 0.00 0.00 0.00 80 1017.5
20260901204004 17 360 1.6 3.2 0.00 0.00 0.00 80 1017.4
20260901203506 17 360 1.6 3.2 0.00 0.00 0.00 80 1017.2
20260901203004 17 360 3.2 3.2 0.00 0.00 0.00 81 1017.3
20260901202504 17 360 1.6 3.2 0.00 0.00 0.00 81 1017.4
20260901202214 17 360 0.0 3.2 0.00 0.00 0.00 82 1017.3
20260901201504 17 358 3.2 3.2 0.00 0.00 0.00 82 1017.3
20260901201004 17 360 3.2 3.2 0.00 0.00 0.00 81 1017.3
20260901200504 17 357 1.6 4.8 0.00 0.00 0.00 81 1017.3
20260901200004 17 353 1.6 4.8 0.00 0.00 0.00 81 1017.3
20260901195504 17 355 3.2 3.2 0.00 0.00 0.00 81 1017.2
20260901195004 17 360 3.2 3.2 0.00 0.00 0.00 82 1017.2
20260901194504 17 360 3.2 3.2 0.00 0.00 0.00 82 1017.2
20260901194003 17 360 1.6 4.8 0.00 0.00 0.00 82 1017.2
20260901193503 17 360 3.2 4.8 0.00 0.00 0.00 81 1017.3
20260901193004 17 360 3.2 4.8 0.00 0.00 0.00 80 1017.0
20260901192717 17 360 3.2 4.8 0.00 0.00 0.00 81 1016.9
20260901192003 17 360 1.6 4.8 0.00 0.00 0.00 80 1016.8
20260901191504 17 358 3.2 4.8 0.00 0.00 0.00 80 1017.0
20260901191003 17 357 3.2 3.2 0.00 0.00 0.00 76 1016.7
20260901190504 17 353 1.6 4.8 0.00 0.00 0.00 75 1016.8
20260901190003 17 348 1.6 4.8 0.00 0.00 0.00 74 1016.8
20260901185504 18 305 3.2 3.2 0.00 0.00 0.00 73 1016.8
20260901185213 18 129 0.0 3.2 0.00 0.00 0.00 73 1016.6
20260901184503 18 348 0.0 3.2 0.00 0.00 0.00 73 1016.5
20260901184003 18 352 1.6 4.8 0.00 0.00 0.00 74 1016.7
20260901183717 18 353 1.6 6.4 0.00 0.00 0.00 74 1016.6
20260901183003 18 349 3.2 6.4 0.00 0.00 0.00 73 1016.7
20260901182503 18 27 0.0 3.2 0.00 0.00 0.00 72 1016.6
20260901182004 18 13 1.6 3.2 0.00 0.00 0.00 72 1016.7
20260901181714 18 6 1.6 3.2 0.00 0.00 0.00 72 1016.4
20260901181004 18 31 3.2 3.2 0.00 0.00 0.00 73 1016.2
20260901180503 19 29 1.6 3.2 0.00 0.00 0.00 72 1016.7
20260901180004 19 2 1.6 3.2 0.00 0.00 0.00 72 1016.4
20260901175503 19 360 1.6 3.2 0.00 0.00 0.00 71 1016.3
20260901175003 20 360 3.2 3.2 0.00 0.00 0.00 70 1016.4
20260901174716 20 3 1.6 3.2 0.00 0.00 0.00 69 1016.3
20260901174003 21 52 0.0 3.2 0.00 0.00 0.00 64 1016.3
20260901173503 22 125 0.0 3.2 0.00 0.00 0.00 62 1016.2
20260901173003 22 331 1.6 3.2 0.00 0.00 0.00 58 1016.2
20260901172504 22 324 0.0 3.2 0.00 0.00 0.00 57 1016.2
20260901172004 23 315 0.0 3.2 0.00 0.00 0.00 56 1016.2
20260901171504 23 315 0.0 1.6 0.00 0.00 0.00 60 1016.0
20260901171004 22 316 0.0 3.2 0.00 0.00 0.00 63 1015.9
20260901170504 22 302 0.0 3.2 0.00 0.00 0.00 63 1016.2
20260901170004 22 219 1.6 4.8 0.00 0.00 0.00 63 1016.1
20260901165504 22 212 1.6 6.4 0.00 0.00 0.00 59 1016.2
20260901165004 23 220 3.2 6.4 0.00 0.00 0.00 56 1016.3
20260901164504 24 214 3.2 6.4 0.00 0.00 0.00 55 1016.1
20260901164004 25 216 3.2 6.4 0.00 0.00 0.00 53 1016.1
20260901163504 25 244 3.2 4.8 0.00 0.00 0.00 54 1016.1
20260901163004 23 221 1.6 6.4 0.00 0.00 0.00 57 1016.2
20260901162504 23 165 3.2 6.4 0.00 0.00 0.00 57 1016.2
20260901162217 23 186 0.0 8.0 0.00 0.00 0.00 57 1016.2
20260901161504 23 208 1.6 8.0 0.00 0.00 0.00 56 1016.1
20260901161006 23 216 0.0 6.4 0.00 0.00 0.00 55 1016.2
20260901160505 25 207 4.8 6.4 0.00 0.00 0.00 52 1016.1
20260901160214 25 205 4.8 6.4 0.00 0.00 0.00 52 1016.1
20260901155504 25 193 3.2 9.7 0.00 0.00 0.00 53 1016.3
20260901155005 24 159 3.2 11.3 0.00 0.00 0.00 52 1016.2
20260901154718 25 166 3.2 11.3 0.00 0.00 0.00 51 1016.2
20260901154004 25 193 4.8 12.9 0.00 0.00 0.00 50 1016.3
20260901153505 25 180 6.4 12.9 0.00 0.00 0.00 50 1016.2
20260901153004 25 194 4.8 11.3 0.00 0.00 0.00 50 1016.0
20260901152504 25 203 6.4 11.3 0.00 0.00 0.00 50 1016.1
20260901152005 25 182 4.8 11.3 0.00 0.00 0.00 50 1016.2
20260901151504 25 180 4.8 11.3 0.00 0.00 0.00 50 1016.3
20260901151004 26 196 6.4 11.3 0.00 0.00 0.00 49 1016.1
20260901150505 26 210 6.4 11.3 0.00 0.00 0.00 48 1016.1
20260901150004 26 214 6.4 11.3 0.00 0.00 0.00 50 1016.2
20260901145504 26 215 4.8 9.7 0.00 0.00 0.00 50 1016.2
20260901145004 26 189 3.2 11.3 0.00 0.00 0.00 50 1016.2
20260901144713 26 218 3.2 11.3 0.00 0.00 0.00 51 1016.1